Regional Weather Roundup
Issued by NWS

Home | Current Version | Previous Version | Text Only | Print | Product List | Glossary On
Versions: 1 2 3 4 5 6 7 8 9 10 11 12 13 14 15 16 17 18 19 20 21 22 23 24 25 26 27 28 29 30 31 32 33 34 35 36 37 38 39 40 41 42 43 44 45 46 47 48 49 50
000
ASUS45 KABQ 301810
RWRNM
WEATHER ROUNDUP FOR NEW MEXICO
NATIONAL WEATHER SERVICE ALBUQUERQUE NM
1100 AM MST FRI JAN 30 2015

NOTE: "FAIR" MEANS FEW OR NO CLOUDS BELOW 12,000 FEET AGL WITH NO
       SIGNIFICANT WEATHER OR OBSTRUCTIONS TO VISION.

      THIS PRODUCT IS RELEASED AS TWO VERSIONS.  ONE VERSION NEAR
      THE TOP OF THE HOUR CONTAINING PRELIMINARY DATA FROM ALBUQUERQUE
      AND OTHER STATIONS.  A FINAL VERSION WITH ADDITIONAL DATA IS
      ISSUED ABOUT 10 MINUTES AFTER THE HOUR.

NMZ501-503-504-510>518-301900-
NORTHWEST PLATEAU/NORTHCENTRAL MOUNTAINS

CITY           SKY/WX    TMP DP  RH WIND       PRES   REMARKS
FARMINGTON     LGT SNOW  32  31  96 E9        30.18F VSB 3/4 WCI  24
6HR MIN TEMP:  32; 6HR MAX TEMP:  32; 6HR PCP:  0.38;

LOS ALAMOS     SNOW      28  28 100 S8        30.28S VSB 1/2 WCI  20
SANTA FE       SNOW      31  28  89 S8        30.28S VSB 1/2 WCI  23
6HR MIN TEMP:  29; 6HR MAX TEMP:  31; 6HR PCP: TRACE;

TAOS           CLOUDY    28  25  86 CALM      30.27F VSB 1
ANGEL FIRE     MIX PCPN  29  27  92 CALM      30.25F

$$
NMZ402-403-502-505>509-301900-
WESTCENTRAL MOUNTAINS/SOUTHWEST MOUNTAINS

CITY           SKY/WX    TMP DP  RH WIND       PRES   REMARKS
GALLUP         LGT SNOW  33  30  88 N5        30.14R FOG     WCI  29
6HR MIN TEMP:  32; 6HR MAX TEMP:  34; 6HR PCP:  0.30;

GRANTS         LGT SNOW  32  30  91 S16G24    30.20S WCI  21
SILVER CITY    LGT RAIN  39  37  93 E15       30.20F WCI  31

$$
NMZ407-409-411-412-301900-
SOUTHERN DESERTS

CITY           SKY/WX    TMP DP  RH WIND       PRES   REMARKS
LORDSBURG      LGT RAIN  41  39  93 SE20G25   30.15F
DEMING         CLOUDY    42  39  89 E16G24    30.19F
6HR MIN TEMP:  40; 6HR MAX TEMP:  42; 6HR PCP:  0.01;

LAS CRUCES     DRIZZLE   43  37  80 SE16G22   30.21F
HOLLOMAN AFB   DRIZZLE   44  41  91 SW3       30.23F
ALAMOGORDO     LGT RAIN  41  41 100 NE5       30.25F
T OR C         LGT RAIN  39  37  92 N8        30.21F WCI  33
6HR MIN TEMP:  37; 6HR MAX TEMP:  40; 6HR PCP:  0.13;


$$
NMZ519>523-301900-
CENTRAL VALLEYS/CENTRAL HIGHLANDS

CITY           SKY/WX    TMP DP  RH WIND       PRES   REMARKS
ALBUQUERQUE    LGT SNOW  35  30  82 NE10      30.26F WCI  27
6HR MIN TEMP:  33; 6HR MAX TEMP:  36; 6HR PCP:  0.10;

DOUBLE EAGLE   LGT SNOW  30  28  93 N8        30.26S VSB 1   WCI  23
MORIARTY ARPT  LGT SNOW  32  28  86 SE12      30.30F WCI  23
6HR MIN TEMP:  30; 6HR MAX TEMP:  32; 6HR PCP:  0.01;

CLINES CORNERS LGT SNOW  28  25  88 E14       30.24F FOG     WCI  17
6HR MIN TEMP:  26; 6HR MAX TEMP:  28; 6HR PCP:  0.14;

BELEN          CLOUDY    32  32 100 NW3       30.25F FOG
6HR MIN TEMP:  32; 6HR MAX TEMP:  33; 6HR PCP:  0.05;

SOCORRO        DRIZZLE   36  36 100 CALM      30.25S
6HR MIN TEMP:  33; 6HR MAX TEMP:  39; 6HR PCP:  0.08;


$$
NMZ524>526-539-540-301900-
SOUTHCENTRAL MOUNTAINS

CITY           SKY/WX    TMP DP  RH WIND       PRES   REMARKS
RUIDOSO        CLOUDY    28  28 100 SE12      30.28F WCI  18

$$
NMZ527>531-301900-
NORTHEAST HIGHLANDS/NORTHEAST PLAINS

CITY           SKY/WX    TMP DP  RH WIND       PRES   REMARKS
LAS VEGAS      SNOW      27  25  92 S7        30.29F VSB 1/2 WCI  19
6HR MIN TEMP:  26; 6HR MAX TEMP:  28; 6HR PCP:  0.07;

RATON          SNOW      29  27  92 S12       30.29F VSB 1/2 WCI  19
6HR MIN TEMP:  29; 6HR MAX TEMP:  31; 6HR PCP:  0.15;

CLAYTON        LGT RAIN  39  27  62 S22       30.31F WCI  29
6HR MIN TEMP:  34; 6HR MAX TEMP:  40; 6HR PCP: TRACE;


$$
NMZ532>537-301900-
EASTCENTRAL PLAINS

CITY           SKY/WX    TMP DP  RH WIND       PRES   REMARKS
TUCUMCARI      LGT SNOW  35  33  92 SW6       30.36F FOG     WCI  30
6HR MIN TEMP:  35; 6HR MAX TEMP:  40; 6HR PCP:  0.01;

CANNON AFB     LGTSLEET  38  27  64 SE10      30.36F WCI  32
6HR MIN TEMP:  37; 6HR MAX TEMP:  39; 6HR PCP: TRACE;

CLOVIS AIRPORT CLOUDY    37  27  65 SE12      30.37F WCI  30

$$
NMZ028-029-538-301900-
SOUTHEAST PLAINS

CITY           SKY/WX    TMP DP  RH WIND       PRES   REMARKS
ROSWELL        CLOUDY    41  32  70 S12       30.36F
6HR MIN TEMP:  40; 6HR MAX TEMP:  42; 6HR PCP:  0.02;

ARTESIA        CLOUDY    41  32  70 E10       30.37F
CARLSBAD       CLOUDY    42  33  70 E9        30.36F
6HR MIN TEMP:  40; 6HR MAX TEMP:  44; 6HR PCP:  0.01;

HOBBS          LGT RAIN  37  32  81 NE12      30.37F WCI  30


$$


USA.gov is the U.S. government's official web portal to all federal, state and local government web resources and services.